Regional Weather Roundup
Issued by NWS

Home | Current Version | Previous Version | Graphics & Text | Print | Product List | Glossary On
Versions: 1 2 3 4 5 6 7 8 9 10 11 12 13 14 15 16 17 18 19 20 21 22 23 24 25 26 27 28 29 30 31 32 33 34 35 36 37 38 39 40 41 42 43 44 45 46 47 48 49 50
000
ASUS43 KIND 051009
RWRIN

WEATHER ROUNDUP FOR INDIANA
NATIONAL WEATHER SERVICE INDIANAPOLIS IN
500 AM EST MON DEC 05 2016

NOTE: "FAIR" INDICATES FEW OR NO CLOUDS BELOW 12,000 FEET WITH NO
SIGNIFICANT WEATHER AND/OR OBSTRUCTIONS TO VISIBILITY.

* - STATION DOES NOT REPORT WEATHER SUCH AS PRECIPITATION OR FOG.

+ - STATION NOT QUALITY CONTROLLED BY THE NATIONAL WEATHER SERVICE.
    USE DATA WITH CAUTION...ESPECIALLY DEWPOINT AND RELATIVE
    HUMIDITY OBSERVATIONS.

INZ001>003-010>013-019-020-051100-
NORTHWEST INDIANA

CITY           SKY/WX    TMP DP  RH WIND       PRES   REMARKS
KNOX *+        CLOUDY    32  25  74 W10       30.03R WCI  24
LA PORTE +     CLOUDY    34  34 100 W7        30.02R WCI  28
MICHIGAN CITY+ CLOUDY    32  32 100 SW9       30.02R WCI  24
MONTICELLO +   CLOUDY    32  28  84 W7        30.03S WCI  26
RENSSELAER +     N/A     34  32  93 W9        30.04R WCI  26
VALPARAISO     CLOUDY    33  30  88 MISG      30.02R

$$

LMZ046-743>745-051100-
SOUTHERN LAKE MICHIGAN

STATION/POSITION TIME  TEMP    WIND        PRES    WAVE
                       AIR SEA DIR/SP/G            HT
                 (UTC) (F)     (DEG/KT/KT) (MB)    (FT)
BURNS HARBOR     1002   35     230/ 10/ 21 1016.9

$$

INZ004-005-014>016-021>024-051100-
NORTH CENTRAL INDIANA

CITY           SKY/WX    TMP DP  RH WIND       PRES   REMARKS
GOSHEN         CLOUDY    33  29  85 W12       30.00R WCI  24
LOGANSPORT +   CLOUDY    32  30  93 W10G16    30.05R WCI  24
PERU/GRISSOM   CLOUDY    33  33  98 W9        30.02R WCI  25
ROCHESTER +    CLOUDY    34  34 100 W9        30.03R WCI  26
SOUTH BEND     CLOUDY    32  31  96 SW10      30.01R WCI  24
WARSAW +       CLOUDY    32  30  93 W12       30.01S WCI  23

$$

INZ006>009-017-018-025>027-051100-
NORTHEAST INDIANA

CITY           SKY/WX    TMP DP  RH WIND       PRES   REMARKS
ANGOLA *+      CLOUDY    34  34 100 W13       29.98R WCI  25
AUBURN +       CLOUDY    34  30  86 W8        30.00R WCI  27
FORT WAYNE     CLOUDY    33  30  88 W12       30.01R WCI  24
HUNTINGTON +   CLOUDY    32  31  96 W13       30.02R WCI  22
KENDALLVILLE + CLOUDY    32  31  95 W10       29.99R WCI  24

$$

INZ028-029-035-036-043>045-051>053-051100-
WEST CENTRAL INDIANA

CITY           SKY/WX    TMP DP  RH WIND       PRES   REMARKS
CRAWFORDSVL +  CLOUDY    32  32 100 W6        30.05S WCI  26
GREENCASTLE +  CLOUDY    34  32  93 W3        30.06S
LAFAYETTE      CLOUDY    32  31  96 W9        30.05R WCI  24
TERRE HAUTE    CLOUDY    35  30  82 W6        30.08R WCI  30

$$

INZ030>032-037>040-046>048-054>057-064-065-051100-
CENTRAL INDIANA

CITY           SKY/WX    TMP DP  RH WIND       PRES   REMARKS
CP ATTERBURY + CLOUDY    36  32  87 W3        30.07S
FISHERS *+     CLOUDY    32  32 100 W6        30.05  WCI  26
FRANKFORT +    CLOUDY    34  32  91 W12       30.05S WCI  26
GREENWOOD *+   CLOUDY    35  32  88 W6        30.05S WCI  30
INDIANAPOLIS   CLOUDY    34  30  85 W8        30.05S WCI  27
-EAGLE CREEK   CLOUDY    35  30  82 W5        30.05R WCI  31
KOKOMO +       CLOUDY    33  31  92 NW9       30.04R WCI  25
MARION +       CLOUDY    33  31  92 W10       30.04R WCI  24
MT COMFORT *+  CLOUDY    34  32  93 W10       30.05R WCI  26
SHELBYVILLE    CLOUDY    36  30  79 W8        30.05R
ZIONSVILLE +   CLOUDY    32  30  92 W9        30.05R WCI  25

$$

INZ033-034-041-042-049-050-058-059-051100-
EAST CENTRAL INDIANA

CITY           SKY/WX    TMP DP  RH WIND       PRES   REMARKS
MUNCIE         CLOUDY    35  31  85 W10       30.03R WCI  27

$$

INZ060-061-067>069-081>083-085>088-051100-
SOUTHWEST INDIANA

CITY           SKY/WX    TMP DP  RH WIND       PRES   REMARKS
EVANSVILLE     CLOUDY    38  33  82 NW5       30.10S
HUNTINGBURG *+ CLOUDY    37  34  87 NW5       30.09S
WASHINGTON +   CLOUDY    36  34  90 W3        30.09R

$$

INZ062-063-066-070>080-084-089>092-051100-
SOUTH CENTRAL AND SOUTHEAST INDIANA

CITY           SKY/WX    TMP DP  RH WIND       PRES   REMARKS
BLOOMINGTON    CLOUDY    35  30  82 NW6       30.07R WCI  30
MADISON *+     CLOUDY    37  32  81 W3        30.08S
NORTH VERNON + CLOUDY   N/A N/A N/A NW5       30.07S
SEYMOUR +      CLOUDY    37  32  81 W3        30.07S

$$




USA.gov is the U.S. government's official web portal to all federal, state and local government web resources and services.